Location: Wloclawek
(52.6500°N, 19.0500°E)
Time: 07:06:14
(UTC+02:00)

ISS - Visible Passes

Search period start: 25 September 2018 00:00
Search period end: 05 October 2018 00:00
Orbit: 403 x 408 km, 51.6° (Epoch: 25 September)

Date Brightness Start Highest point End Pass type
(mag) Time Alt. Az. Time Alt. Az. Time Alt. Az.
25 Sep -2.3 19:29:00 10° SSW 19:31:34 21° SSE 19:33:23 14° ESE visible
25 Sep -2.0 21:04:25 10° WSW 21:06:04 26° WSW 21:06:04 26° WSW visible
26 Sep -3.5 20:12:42 10° SW 20:15:52 47° SSE 20:16:23 42° SE visible
26 Sep -0.6 21:48:57 10° W 21:49:04 11° W 21:49:04 11° W visible
27 Sep -2.9 19:21:03 10° SW 19:24:06 34° SSE 19:26:37 14° E visible
27 Sep -2.6 20:57:05 10° W 20:59:17 38° WSW 20:59:17 38° WSW visible
28 Sep -3.8 20:05:14 10° WSW 20:08:31 64° SSE 20:09:26 42° ESE visible
28 Sep -0.7 21:41:39 10° W 21:42:06 13° W 21:42:06 13° W visible
29 Sep -3.5 19:13:26 10° WSW 19:16:40 52° SSE 19:19:31 13° E visible
29 Sep -2.9 20:49:45 10° W 20:52:11 45° WSW 20:52:11 45° WSW visible
30 Sep -3.9 19:57:51 10° W 20:01:09 75° S 20:02:14 39° E visible
30 Sep -0.8 21:34:19 10° W 21:34:54 14° W 21:34:54 14° W visible
01 Oct -3.7 19:05:57 10° WSW 19:09:15 69° S 19:12:15 12° E visible
01 Oct -2.9 20:42:23 10° W 20:44:55 46° WSW 20:44:55 46° WSW visible
02 Oct -3.8 19:50:27 10° W 19:53:45 74° S 19:54:55 37° ESE visible
02 Oct -0.8 21:26:59 10° W 21:27:35 14° W 21:27:35 14° W visible
03 Oct -3.8 18:58:30 10° W 19:01:49 76° S 19:04:55 11° E visible
03 Oct -2.8 20:34:59 10° W 20:37:35 41° SW 20:37:35 41° SW visible
04 Oct -3.6 19:43:00 10° W 19:46:17 61° SSW 19:47:35 32° SE visible
04 Oct -0.7 21:19:46 10° W 21:20:15 13° W 21:20:15 13° W visible
